TIANLIAN 1-O5

导读

TIANLIAN 1-05即天链一号05星,是中国抓总研制的第一代中继卫星系统装备星,于2021年7月6日在西昌卫星发射中心由长征三号丙运载火箭送入预定轨道。它将维持系统完整性,保障覆盖率与服务能力,为航天器等提供数据中继、测控传输服务。入网后与其他天链卫星全球组网,标志中国第一代中继卫星圆满收官,使中国成为第二个拥有全球覆盖中继卫星系统的国家。

Basic Information
目录编号:
49011
目录名称:
TIANLIAN 1-O5
国际标识:
2021-063A
轨道中心:
EARTH
卫星名称:
TIANLIAN 1-O5
卫星全名:
--
卫星状态:
在轨 (已飞行1803 天)
发射日期:
2021-07-06 UTC
国别 :
中国 (CN)
星等 :
--
Orbit Information
数据来源 国际轨道数据 AOE轨道数据
星历时间 2026-06-13T04:07:22+0800
5小时前
查看轨道信息
2026-06-13T06:00:00+0800
3小时前
查看轨道信息
半长轴 42165.121km 42165.093km
偏心率 0.0000615 0.0000718
轨道倾角 1.582° 1.582°
近地点辐角 317.386° 313.244°
升交点赤经 80.738° 80.732°
平近点角 181.691° 214.076°
近地点 35784.39km 35783.928km
远地点 35789.578km 35789.984km
周期 1436.117分钟 1436.115分钟
每日圈数 1.002704 1.002705
Detailed Information
使用方式:
暂无
2D Orbit Map
3D Orbit Map
Orbit Altitude Analysis Chart
Orbit Inclination Analysis Chart
Orbit Comprehensive Analysis Chart
View Comprehensive Chart